QPF
0.00 0.00 0.00 0.00 0.00 0.00 0.00 0.00 0.00 0.00 0.00 0.00 0.00 0.00 0.00 0.00 0.00 0.00 0.00 0.00 0.00 0.01
0.00 0.00 0.00 0.00 0.00 0.00 0.00 0.00 0.00 0.00 0.00 0.00 0.00 0.00 0.00 0.00 0.00 0.00 0.00 0.00 0.00 0.01
0.00 0.00 0.00 0.00 0.00 0.00 0.00 0.00 0.00 0.00 0.00 0.00 0.00 0.00 0.00 0.00 0.00 0.00 0.00 0.01 0.00 0.00
0.00 0.00 0.00 0.00 0.00 0.00 0.00 0.00 0.00 0.00 0.00 0.00 0.00 0.00 0.00 0.00 0.00 0.00 0.00 0.00 0.00 0.00
0.00 0.00 0.00 0.00 0.00 0.00 0.00 0.00 0.00 0.00 0.00 0.00 0.00 0.00 0.00 0.00 0.00 0.00 0.00 0.00 0.00 0.00
0.00 0.00 0.00 0.00 0.00 0.00 0.00 0.00 0.00 0.00 0.00 0.00 0.00 0.00 0.00 0.00 0.00 0.00 0.00 0.00 0.00 0.00
0.00 0.00 0.00 0.00 0.00 0.00 0.00 0.00 0.00 0.00 0.00 0.00 0.00 0.00 0.00 0.00 0.00 0.00 0.00 0.00 0.00 0.00
0.00 0.00 0.00 0.00 0.01 0.01 0.00 0.00 0.00 0.00 0.00 0.00 0.00 0.00 0.00 0.00 0.00 0.00 0.00 0.00 0.00 0.00
0.00 0.00 0.00 0.00 0.00 0.00 0.00 0.00 0.00 0.00 0.00 0.00 0.00 0.00 0.00 0.00 0.00 0.00 0.00 0.00 0.00 0.00
0.00 0.00 0.00 0.00 0.00 0.01 0.00 0.00 0.00 0.00 0.00 0.00 0.00 0.00 0.00 0.00 0.00 0.00 0.00 0.00 0.00 0.00
0.00 0.00 0.00 0.00 0.00 0.00 0.00 0.00 0.00 0.00 0.00 0.00 0.00 0.00 0.00 0.00 0.00 0.00 0.00 0.00 0.00 0.00
0.00 0.00 0.00 0.00 0.00 0.00 0.00 0.00 0.00 0.00 0.00 0.00 0.00 0.00 0.00 0.00 0.00 0.00 0.00 0.00 0.00 0.00
0.00 0.00 0.00 0.00 0.00 0.00 0.00 0.00 0.00 0.00 0.00 0.00 0.00 0.00 0.00 0.00 0.00 0.00 0.00 0.00 0.00 0.00
0.00 0.00 0.00 0.00 0.00 0.00 0.00 0.00 0.00 0.00 0.00 0.00 0.00 0.00 0.00 0.00 0.00 0.00 0.00 0.00 0.00 0.00
MSLP
1023.68 1023.84 1023.95 1024.00 1024.01 1024.08 1024.04 1023.92 1023.67 1023.59 1023.42 1023.26 1023.18 1023.06 1023.03 1023.10 1023.11 1023.03 1022.91 1022.68 1022.43 1022.20
1023.63 1023.60 1023.64 1023.61 1023.68 1023.68 1023.52 1023.29 1023.15 1023.22 1023.17 1023.07 1022.77 1022.67 1022.70 1022.73 1022.62 1022.54 1022.46 1022.30 1022.15 1021.93
1023.32 1023.38 1023.35 1023.40 1023.35 1023.17 1023.08 1022.90 1022.85 1022.60 1022.49 1022.77 1022.59 1022.36 1022.46 1022.42 1022.33 1022.35 1022.20 1022.12 1022.08 1021.98
1023.01 1023.01 1023.14 1023.09 1022.87 1022.72 1022.61 1022.56 1022.45 1022.38 1022.36 1022.45 1022.28 1022.15 1022.16 1022.17 1022.17 1022.29 1022.22 1022.06 1021.98 1021.73
1022.70 1022.56 1022.68 1022.74 1022.52 1022.41 1022.33 1021.80 1021.73 1021.58 1021.94 1022.06 1021.99 1022.05 1021.96 1022.03 1022.03 1022.15 1022.11 1022.03 1021.85 1021.58
1022.81 1022.66 1022.38 1022.07 1022.10 1022.21 1022.44 1022.60 1022.81 1022.00 1021.70 1021.89 1021.99 1021.79 1021.74 1021.83 1021.87 1022.03 1022.01 1021.87 1021.66 1021.38
1022.93 1022.63 1022.39 1022.23 1022.50 1022.29 1022.24 1022.51 1022.48 1021.63 1021.35 1021.63 1021.71 1021.82 1021.66 1021.69 1021.83 1021.83 1021.76 1021.57 1021.34 1021.08
1022.98 1022.63 1022.27 1022.14 1022.06 1021.93 1021.91 1022.11 1022.16 1021.68 1021.48 1021.41 1021.58 1021.91 1021.68 1021.53 1021.59 1021.58 1021.48 1021.24 1021.02 1020.74
1023.11 1022.72 1022.51 1022.28 1021.96 1021.76 1021.68 1021.77 1022.17 1021.78 1021.69 1021.77 1021.94 1022.02 1021.59 1021.48 1021.45 1021.40 1021.27 1021.07 1020.73 1020.41
1022.88 1022.67 1022.49 1022.16 1021.94 1021.97 1022.23 1022.33 1022.51 1022.04 1022.05 1022.21 1022.12 1021.82 1021.55 1021.33 1021.18 1021.30 1021.15 1020.84 1020.47 1020.03
1022.90 1022.68 1022.45 1022.36 1022.27 1022.40 1022.40 1022.20 1022.11 1022.29 1022.34 1022.36 1022.08 1021.81 1021.63 1021.53 1021.44 1021.28 1021.00 1020.66 1020.21 1019.73
1022.87 1022.66 1022.40 1022.38 1022.30 1022.37 1022.33 1022.20 1022.31 1022.45 1022.50 1022.37 1022.24 1021.93 1021.72 1021.64 1021.61 1021.33 1020.97 1020.42 1019.91 1019.36
1022.79 1022.60 1022.42 1022.24 1022.22 1022.16 1022.04 1022.40 1022.60 1022.62 1022.58 1022.51 1022.47 1022.19 1021.83 1021.59 1021.52 1021.38 1020.70 1020.19 1019.57 1019.02
1022.82 1022.56 1022.12 1021.93 1021.89 1021.91 1022.30 1022.69 1022.88 1022.84 1022.78 1022.75 1022.58 1022.33 1022.04 1021.73 1021.43 1021.14 1020.64 1020.10 1019.39 1018.79
Thickness
5512 5501 5491 5481 5470 5457 5444 5433 5421 5410 5400 5390 5379 5370 5361 5350 5339 5330 5321 5314 5307 5302
5496 5487 5477 5467 5452 5439 5426 5413 5403 5390 5379 5367 5357 5347 5335 5325 5313 5306 5299 5293 5289 5285
5481 5472 5462 5449 5435 5423 5411 5397 5385 5375 5361 5346 5333 5323 5313 5305 5295 5285 5280 5275 5272 5269
5469 5458 5444 5432 5421 5409 5394 5379 5363 5349 5333 5320 5312 5305 5296 5286 5278 5270 5264 5261 5259 5258
5454 5442 5429 5416 5403 5388 5372 5360 5343 5331 5318 5308 5299 5290 5283 5276 5267 5261 5255 5251 5248 5247
5435 5421 5410 5399 5384 5366 5349 5334 5318 5311 5305 5296 5286 5280 5274 5266 5260 5251 5245 5240 5236 5233
5416 5404 5387 5373 5357 5344 5328 5313 5304 5302 5294 5286 5278 5270 5266 5258 5249 5242 5235 5229 5223 5218
5392 5379 5367 5354 5340 5325 5312 5299 5289 5285 5279 5275 5269 5260 5255 5249 5241 5232 5224 5217 5211 5205
5373 5361 5346 5331 5318 5306 5295 5285 5275 5273 5267 5263 5257 5249 5246 5240 5231 5221 5213 5205 5199 5193
5359 5343 5328 5315 5301 5288 5275 5266 5260 5261 5257 5253 5247 5243 5237 5230 5221 5211 5201 5195 5189 5185
5341 5328 5312 5297 5286 5274 5266 5262 5259 5254 5250 5244 5239 5234 5226 5217 5208 5200 5193 5187 5183 5179
5324 5309 5297 5286 5278 5271 5265 5260 5255 5249 5243 5236 5230 5224 5216 5208 5198 5192 5186 5184 5179 5175
5308 5294 5285 5279 5273 5268 5264 5256 5249 5243 5236 5230 5221 5214 5208 5202 5193 5186 5186 5181 5177 5172
5292 5283 5279 5275 5270 5265 5256 5249 5242 5235 5229 5221 5213 5205 5199 5194 5189 5185 5183 5179 5176 5171